TimeCST,TemperatureF,Dew PointF,Humidity,Sea Level PressureIn,VisibilityMPH,Wind Direction,Wind SpeedMPH,Gust SpeedMPH,PrecipitationIn,Events,Conditions,WindDirDegrees,DateUTC
12:56 AM,43.0,38.8,85,30.16,10.0,Calm,Calm,-,N/A,,Overcast,0,2013-12-30 06:56:00
1:46 AM,42.8,39.2,87,30.14,10.0,NNW,10.4,-,N/A,,Overcast,340,2013-12-30 07:46:00
1:56 AM,41.9,37.9,86,30.17,10.0,NNW,10.4,-,N/A,,Overcast,340,2013-12-30 07:56:00
2:28 AM,39.2,37.4,93,30.13,10.0,North,8.1,-,N/A,,Mostly Cloudy,350,2013-12-30 08:28:00
2:56 AM,38.8,36.0,89,30.17,9.0,North,11.5,-,N/A,,Scattered Clouds,350,2013-12-30 08:56:00
3:56 AM,37.9,34.9,89,30.18,8.0,North,5.8,-,N/A,,Overcast,360,2013-12-30 09:56:00
4:49 AM,37.4,33.8,87,30.15,8.0,North,8.1,-,N/A,,Mostly Cloudy,360,2013-12-30 10:49:00
4:56 AM,36.9,34.0,89,30.19,8.0,North,5.8,-,N/A,,Overcast,10,2013-12-30 10:56:00
5:11 AM,35.6,33.8,93,30.16,7.0,North,4.6,-,N/A,,Overcast,360,2013-12-30 11:11:00
5:56 AM,36.0,32.9,89,30.20,5.0,North,6.9,-,N/A,,Overcast,10,2013-12-30 11:56:00
6:17 AM,35.6,32.0,87,30.18,6.0,NNE,5.8,-,N/A,,Overcast,20,2013-12-30 12:17:00
6:56 AM,34.0,31.1,89,30.22,8.0,North,6.9,-,N/A,,Mostly Cloudy,10,2013-12-30 12:56:00
7:56 AM,34.9,32.0,89,30.24,6.0,Calm,Calm,-,N/A,,Overcast,0,2013-12-30 13:56:00
8:56 AM,34.9,32.0,89,30.27,5.0,Variable,6.9,-,N/A,,Overcast,0,2013-12-30 14:56:00
9:56 AM,36.0,32.9,89,30.27,4.0,NE,3.5,-,N/A,,Overcast,40,2013-12-30 15:56:00
10:56 AM,36.0,32.9,89,30.26,3.0,North,5.8,-,N/A,,Overcast,10,2013-12-30 16:56:00
11:56 AM,36.0,32.0,86,30.25,6.0,Calm,Calm,-,N/A,,Overcast,0,2013-12-30 17:56:00
12:06 PM,37.4,32.0,81,30.21,6.0,Calm,Calm,-,N/A,,Haze,0,2013-12-30 18:06:00
12:56 PM,36.9,32.0,83,30.23,10.0,Calm,Calm,-,N/A,,Overcast,0,2013-12-30 18:56:00
1:56 PM,36.0,32.0,86,30.22,9.0,Calm,Calm,-,N/A,,Overcast,0,2013-12-30 19:56:00
2:49 PM,35.6,32.0,87,30.19,5.0,Calm,Calm,-,N/A,,Overcast,0,2013-12-30 20:49:00
2:56 PM,36.0,32.0,86,30.22,7.0,Calm,Calm,-,N/A,,Overcast,0,2013-12-30 20:56:00
3:20 PM,35.6,32.0,87,30.20,6.0,NNW,8.1,-,0.00,,Overcast,340,2013-12-30 21:20:00
3:56 PM,34.9,32.0,89,30.25,9.0,North,5.8,-,0.00,,Overcast,360,2013-12-30 21:56:00
4:18 PM,33.8,32.0,93,30.22,2.0,Calm,Calm,-,0.00,,Overcast,0,2013-12-30 22:18:00
4:42 PM,33.8,32.0,93,30.23,1.2,North,6.9,-,0.00,,Overcast,10,2013-12-30 22:42:00
4:49 PM,33.8,32.0,93,30.23,2.0,North,5.8,-,0.00,,Overcast,10,2013-12-30 22:49:00
4:56 PM,32.9,32.0,96,30.26,2.5,North,5.8,-,0.00,,Overcast,10,2013-12-30 22:56:00
5:08 PM,33.8,32.0,93,30.22,2.0,Calm,Calm,-,0.00,,Overcast,0,2013-12-30 23:08:00
5:27 PM,33.8,32.0,93,30.22,2.0,Calm,Calm,-,0.00,,Overcast,0,2013-12-30 23:27:00
5:56 PM,32.9,32.0,96,30.26,2.0,NNE,4.6,-,0.00,,Overcast,20,2013-12-30 23:56:00
6:36 PM,32.0,32.0,100,30.25,4.0,Calm,Calm,-,N/A,,Overcast,0,2013-12-31 00:36:00
6:56 PM,32.0,32.0,100,30.28,5.0,Calm,Calm,-,N/A,,Overcast,0,2013-12-31 00:56:00
7:49 PM,32.0,30.2,93,30.27,8.0,Calm,Calm,-,N/A,,Overcast,0,2013-12-31 01:49:00
7:56 PM,32.0,31.1,96,30.31,9.0,Calm,Calm,-,N/A,,Overcast,0,2013-12-31 01:56:00
8:56 PM,32.0,31.1,96,30.32,8.0,Calm,Calm,-,N/A,,Overcast,0,2013-12-31 02:56:00
9:07 PM,32.0,30.2,93,30.30,7.0,Calm,Calm,-,N/A,,Overcast,0,2013-12-31 03:07:00
9:39 PM,33.8,32.0,93,30.30,6.0,Calm,Calm,-,N/A,,Overcast,0,2013-12-31 03:39:00
9:56 PM,32.9,32.0,96,30.33,4.0,Calm,Calm,-,N/A,,Overcast,0,2013-12-31 03:56:00
10:56 PM,32.9,32.0,96,30.34,5.0,Calm,Calm,-,N/A,,Overcast,0,2013-12-31 04:56:00
11:56 PM,32.0,32.0,100,30.34,6.0,Calm,Calm,-,N/A,,Overcast,0,2013-12-31 05:56:00